Location: Frear Park
(42.7448°N, 73.6735°W)
Time: 04:50:11
(UTC+00:00)

Daily predictions for brighter satellites

Satellite Brightness Start Highest point End
(mag) Time Altitude Azimuth Time Altitude Azimuth Time Altitude Azimuth
RESURS DK-1 4.1 01:06:51 10° N 01:09:55 20° NE 01:13:00 10° ESE
MOS 1-B Rocket 4.2 01:05:00 10° S 01:11:10 75° WSW 01:16:50 10° NNW
PSLV R/B 3.8 01:07:58 10° S 01:11:30 71° W 01:15:01 10° NNW
ERS-1 Rocket 4.0 01:10:25 10° SE 01:14:50 32° ENE 01:19:15 10° N
Atlas Centaur 2 3.8 01:08:15 10° WSW 01:15:09 34° S 01:22:25 10° ESE
Cosmos 841 Rocket 4.4 01:12:48 10° N 01:17:37 35° ENE 01:22:24 10° SE
Cosmos 1763 Rocket 3.7 01:13:22 10° NNW 01:18:37 76° WSW 01:23:44 10° SSE
MetOp-B 4.4 01:14:54 10° SSE 01:20:06 56° ENE 01:25:21 10° N
USA 234 3.4 01:13:55 10° ENE 01:20:16 51° SE 01:26:34 10° SSW
CZ-4C R/B 3.6 01:16:51 10° NNE 01:20:56 55° E 01:24:57 10° S
Cosmos 1674 3.0 01:18:21 10° SSW 01:21:45 59° W 01:25:11 10° N
Terra 2.9 01:18:17 10° SE 01:22:21 30° ENE 01:26:25 10° N
SL-27 R/B 3.9 01:28:29 12° ESE 01:29:13 13° E 01:30:32 10° ENE
SL-4 R/B 4.3 01:28:47 10° WNW 01:31:51 23° N 01:35:06 10° NE
BREEZE-M DEB (TANK) 3.0 01:32:26 10° WSW 01:35:33 86° SSE 01:45:12 10° ENE
IRS-1A Rocket 4.3 01:31:50 10° SSE 01:37:16 65° ENE 01:42:44 10° N
Cosmos 1300 4.2 01:34:35 10° NNE 01:37:18 20° ENE 01:39:22 13° ESE
ARGOS Delta rocket 3.6 01:36:25 10° SSE 01:40:53 80° ENE 01:45:17 10° N
Cosmos 1980 Rocket 3.8 01:36:33 10° NW 01:41:26 30° WSW 01:46:17 10° SSW
Cosmos 1441 Rocket 3.0 01:39:48 10° N 01:43:26 88° W 01:46:53 11° S
Cosmos 2322 Rocket 2.9 01:38:24 10° NNW 01:43:49 43° ENE 01:48:23 14° SE
Cosmos 1400 Rocket 2.9 01:40:28 10° S 01:44:15 53° E 01:48:00 10° NNE
Meteor 1-22 Rocket 4.4 01:40:50 10° N 01:46:29 62° ENE 01:51:41 13° SSE
Meteor 2-10 Rocket 4.1 01:41:36 10° N 01:46:57 46° ENE 01:51:05 15° SE
Cosmos 1908 3.2 01:44:41 10° NNW 01:48:18 73° W 01:51:48 11° S
Okean-O 3.3 01:44:03 10° S 01:48:20 53° W 01:52:40 10° NNW
Meteor 1-4 Rocket 4.4 01:49:01 10° E 01:49:07 10° E 01:49:29 10° E
SL-08 ROCKET BODY 4.5 01:43:10 10° S 01:49:12 63° E 01:55:11 10° NNE
ATLAS CENTAUR R/B 1.1 01:46:16 10° SSW 01:49:36 49° ESE 01:53:03 10° NE
Cosmos 1356 Rocket 4.2 01:46:47 15° SSE 01:49:44 33° E 01:53:33 10° NNE
Cosmos 468 Rocket 4.5 01:46:12 10° NNW 01:51:20 58° WSW 01:56:23 10° S
Ariane Rocket 3.4 01:49:18 15° SE 01:53:18 50° ENE 01:58:13 10° N
Cosmos 2278 3.8 01:51:10 10° NNW 01:56:54 76° WSW 02:01:45 14° SSE
USA 245 3.2 01:54:39 18° SSE 01:57:09 70° ENE 02:01:28 10° N
ATLAS 2AS CENTAUR R/B 3.2 01:54:26 10° NNW 02:01:03 48° NE 02:06:25 15° ESE
Timation 1 Rocket 4.3 01:57:59 10° SSW 02:03:56 89° ESE 02:09:57 10° NNE
Cosmos 1953 4.4 02:03:03 10° NE 02:04:49 13° ENE 02:06:11 11° E
Cosmos 1470 4.4 02:01:56 10° NNW 02:05:10 29° W 02:08:23 10° SSW
Cosmos 2228 Rocket 3.3 02:02:00 15° SSE 02:05:34 55° E 02:10:02 10° NNE
Cosmos 1869 Rocket 3.8 02:01:18 10° NNW 02:05:44 71° W 02:09:37 13° S
Okean O Rocket 4.0 02:04:14 10° SW 02:07:16 18° W 02:10:20 10° NW
Cosmos 1850 Rocket 3.9 02:02:27 10° S 02:07:39 73° ESE 02:12:51 10° NNE
Cosmos 2219 Rocket 3.5 02:03:06 10° N 02:08:00 29° NE 02:11:59 14° ESE
BREEZE-M DEB (TANK) 3.3 02:06:40 10° NW 02:08:34 31° NNE 02:11:01 11° E
S3M 4.1 02:03:48 10° N 02:10:12 87° W 02:15:45 14° S
MOS 1 Rocket 3.6 02:07:55 18° SSE 02:11:59 74° ENE 02:17:16 10° N
BlueWalker 3 3.6 02:14:18 17° E 02:14:18 17° E 02:15:39 10° E
Landsat 4 3.5 02:11:53 26° SSE 02:13:38 65° ENE 02:17:03 10° N
Cosmos 2266 Rocket 4.3 02:11:20 10° SSW 02:17:38 73° W 02:24:03 10° N
Cosmos 968 Rocket 3.4 02:15:24 11° S 02:20:12 65° ESE 02:25:21 10° NNE
SeaSat 1 2.5 02:18:09 21° SSE 02:21:26 75° WSW 02:26:22 10° NNW
SPOT 3 Rocket 3.5 02:20:05 21° SSE 02:23:35 85° ENE 02:28:47 10° NNW
Cosmos 1655 Rocket 4.0 02:17:56 10° S 02:24:20 88° E 02:30:46 10° N
Tiangong 0.2 02:23:27 10° WSW 02:24:58 13° SSW 02:24:58 13° SSW
SPOT 5 4.1 02:22:30 10° SSW 02:26:19 31° W 02:30:12 10° NNW
SL-14 R/B 3.3 02:24:50 18° SSW 02:27:36 76° W 02:31:25 10° N
Cosmos 1741 Rocket 4.1 02:23:01 10° SSW 02:28:17 79° WNW 02:33:37 10° NNE
Landsat 5 3.5 02:26:54 10° NNE 02:30:53 56° E 02:32:47 29° SSE
Cosmos 2360 Rocket 2.2 02:27:48 10° NNW 02:33:31 81° ENE 02:36:45 27° SSE
Cosmos 1346 Rocket 2.6 02:30:37 10° N 02:34:29 89° E 02:36:07 33° S
Cosmos 1814 Rocket 4.3 02:29:48 10° NNW 02:35:02 56° ENE 02:37:47 27° SE
Cosmos 1455 3.5 02:32:50 10° NNE 02:35:39 22° ENE 02:36:13 21° E
Cosmos 1862 Rocket 3.5 02:33:48 23° S 02:36:30 86° E 02:40:58 10° N
Okean 3 3.3 02:34:34 30° S 02:36:31 68° E 02:40:40 10° NNE
COSMOS 2455 4.1 02:44:44 21° ESE 02:45:21 22° ESE 02:49:46 10° ENE
SL-16 R/B 3.2 02:40:20 10° NW 02:45:34 39° WSW 02:49:14 18° SSW
RESURS DK-1 3.3 02:43:59 10° NW 02:47:47 38° WSW 02:49:28 26° SSW
Cosmos 2333 Rocket 2.2 02:44:26 10° NNW 02:50:13 82° WSW 02:53:10 30° SSE
SJ 16-02 1.3 02:50:25 22° SSW 02:53:08 80° WNW 02:57:28 10° NNE
ERS-1 Rocket 4.4 02:49:41 13° SSW 02:53:31 31° W 02:57:59 10° NNW
Cosmos 1758 4.5 02:53:00 10° NNW 02:56:37 36° W 02:58:34 22° SW
Cosmos 1707 Rocket 4.5 02:53:33 15° SSW 02:57:00 47° WNW 03:01:17 10° N
Terra 3.3 02:56:42 15° SSW 02:59:52 30° W 03:04:00 10° NW
SL-27 R/B 4.4 02:59:50 11° WSW 03:01:55 20° WNW 03:04:06 10° NNW
CZ-2C R/B 4.1 02:58:57 10° NNE 03:03:10 42° E 03:03:53 39° SE
USA 234 4.0 02:56:57 10° NE 03:03:17 54° NNW 03:09:35 10° WSW
Atlas Centaur 2 4.0 02:57:08 10° WSW 03:03:36 26° SSW 03:05:10 24° S
DNEPR-1 R/B 4.3 02:58:10 10° NNW 03:04:45 74° NE 03:07:12 34° SE
SL-08 R/B 4.4 03:04:03 31° S 03:07:04 71° E 03:13:09 10° NNE
Cosmos 2237 Rocket 4.3 03:04:41 10° N 03:08:32 18° NE 03:12:22 10° E
Aureole 3 4.2 03:06:45 25° SW 03:08:47 51° WNW 03:13:27 10° N
SL-4 R/B 4.0 03:08:06 10° NW 03:11:31 27° NNE 03:15:05 10° ENE
Meteor 1-16 Rocket 4.4 03:06:56 10° NNW 03:12:51 73° W 03:15:43 32° S
CZ-4C R/B 3.0 03:13:34 24° E 03:13:34 24° E 03:16:59 10° ENE
Cosmos 2322 4.2 03:07:21 10° NNW 03:12:54 51° ENE 03:15:19 31° ESE
ARIANE 5 R/B 3.0 03:15:40 41° ESE 03:16:37 50° ENE 03:20:50 10° N
Cosmos 2333 4.4 03:13:07 10° NNW 03:18:49 63° WSW 03:21:08 36° S
Cosmos 1733 Rocket 4.5 03:15:06 10° NNW 03:18:59 31° W 03:21:05 21° SW
Okean 1-7 3.3 03:19:45 36° SSW 03:21:22 62° W 03:25:40 10° N
Meteor 1-4 Rocket 3.7 03:21:00 26° W 03:21:34 29° WNW 03:24:15 10° NNW
ATLAS CENTAUR R/B 4.1 03:25:19 10° W 03:27:32 16° NW 03:29:47 10° N
Cosmos 2322 Rocket 3.6 03:22:50 10° NW 03:27:37 29° WSW 03:30:11 20° SW
Cosmos 1486 Rocket 4.4 03:29:37 40° ESE 03:30:17 43° ESE 03:35:11 10° NNE
Okean 2 4.1 03:30:42 33° SW 03:31:59 45° WNW 03:35:52 10° N
Cosmos 2297 Rocket 3.1 03:32:33 29° ESE 03:32:55 30° ESE 03:37:44 10° NE
Cosmos 1242 Rocket 3.2 03:34:06 39° NNW 03:34:06 39° NNW 03:36:04 10° N
Cosmos 1908 Rocket 3.6 03:29:38 10° NNW 03:33:57 69° W 03:34:47 54° SSW
GP-B 3.0 03:30:32 10° N 03:34:58 90° SSE 03:35:46 59° S
Cosmos 1782 Rocket 3.5 03:32:35 10° N 03:36:54 64° E 03:37:25 58° ESE
Spot 4 4.5 03:38:28 38° ESE 03:39:37 45° ENE 03:44:11 10° N
Cosmos 1315 Rocket 4.1 03:38:29 25° WSW 03:39:59 34° WNW 03:43:40 10° N
Cosmos 1953 2.9 03:37:14 10° NNW 03:40:54 44° W 03:41:18 42° WSW
PSLV R/B 3.7 03:45:19 10° N 03:49:20 81° WNW 03:49:38 73° SW
H-2A R/B 4.2 03:47:54 10° ENE 03:49:29 13° E 03:49:29 13° E
BlueWalker 3 2.5 03:48:25 22° WSW 03:50:39 54° NNW 03:54:19 10° NE
Cosmos 1745 Rocket 4.0 03:48:52 39° S 03:51:26 86° W 03:57:50 10° N
ATLAS 2AS CENTAUR R/B 3.5 03:45:41 10° NW 03:51:45 37° WSW 03:53:49 30° SSW
Cosmos 2219 Rocket 2.8 03:46:43 10° NW 03:52:07 46° WSW 03:53:40 37° SSW
Cosmos 1300 Rocket 3.3 03:49:25 10° N 03:53:44 81° E 03:54:04 73° SE
Cosmos 405 Rocket 4.4 03:51:52 10° NNE 03:54:54 22° ENE 03:54:55 22° ENE
Meteor 2-5 Rocket 4.2 03:53:35 41° SE 03:54:55 48° E 04:00:30 10° NNE
COSMOS 2428 2.6 03:49:30 10° NNW 03:55:15 88° ENE 03:56:49 50° SSE
USA 281 3.2 03:54:58 42° S 03:57:26 77° WSW 04:04:02 10° NNW
Cosmos 304 Rocket 3.9 03:58:20 53° ESE 03:58:29 53° ESE 04:03:07 10° NNE
Nadezhda 1 Rocket 4.1 03:55:58 10° NNW 04:02:13 70° W 04:04:20 42° SSW
Cosmos 1408 3.5 04:03:14 37° N 04:03:14 37° N 04:05:13 10° N
Cosmos 1570 Rocket 4.3 03:59:54 10° NNW 04:05:10 59° WSW 04:06:15 49° SSW
ALOS 2 2.8 04:06:37 55° E 04:07:03 58° ENE 04:11:22 10° N
Cosmos 158 Rocket 3.9 04:03:10 10° NNW 04:08:28 78° WSW 04:09:23 60° S
Okean 2 Rocket 4.5 04:05:29 10° NNE 04:09:19 27° ENE 04:09:56 26° E
Cosmos 1455 4.0 04:07:20 10° NW 04:09:56 20° W 04:09:56 20° W
Cosmos 1378 Rocket 4.5 04:11:41 35° E 04:11:41 35° E 04:15:32 10° NNE
Cosmos 2360 Rocket 4.3 04:13:52 10° WNW 04:16:42 14° W 04:18:30 12° WSW
Cosmos 1703 3.4 04:18:25 65° N 04:18:25 65° N 04:21:37 10° N
Cosmos 1892 4.3 04:19:11 23° ENE 04:19:11 23° ENE 04:21:11 10° NNE
BREEZE-M DEB (TANK) 4.4 04:10:51 10° WNW 04:21:45 45° N 04:25:12 10° ENE
H-2A R/B 2.8 04:22:37 55° WSW 04:22:42 55° W 04:26:54 10° NNW
Spot 2 4.4 04:23:04 63° SSE 04:23:54 87° ENE 04:28:59 10° NNW
Cosmos 2221 Rocket 4.3 04:27:05 39° E 04:27:05 39° E 04:31:11 10° NNE
COSMOS 2455 3.1 04:27:48 31° SW 04:30:44 64° WNW 04:36:45 10° NNE
Cosmos 773 Rocket 3.8 04:26:14 10° NNW 04:31:24 89° ENE 04:32:11 65° SSE
Cosmos 2242 Rocket 4.3 04:31:59 43° WSW 04:32:42 46° WNW 04:37:07 10° N
Cosmos 2333 Rocket 4.5 04:32:00 10° W 04:33:31 11° W 04:35:04 10° WSW
Sich 1 Rocket 4.0 04:31:06 10° N 04:35:22 49° ENE 04:35:34 48° E
SL-23 DEB 4.4 04:37:07 61° SSW 04:37:57 76° SE 04:45:35 10° ENE
NOSS 0 Rocket 4.0 04:34:01 10° NNW 04:40:11 64° WSW 04:41:34 51° SSW
CZ-3 Stage 3 4.3 04:19:22 10° W 04:41:45 34° SW 04:43:32 32° SSW
Cosmos 1825 3.2 04:45:15 36° NE 04:45:15 36° NE 04:47:37 10° NNE
Cosmos 1777 Rocket 4.0 04:44:04 58° SW 04:45:05 80° WNW 04:50:25 10° NNE
Cosmos 1503 Rocket 4.2 04:44:15 48° SW 04:45:35 66° WNW 04:50:53 10° NNE
SL-16 R/B 3.7 04:41:34 10° N 04:46:34 30° NE 04:50:11 16° ESE
CENTAUR R/B 2.5 04:46:01 48° SE 04:46:37 50° ESE 04:52:59 10° NE
SL-4 R/B 2.1 04:46:38 10° NW 04:50:42 76° NNE 04:50:42 76° NNE
Cosmos 371 Rocket 4.3 04:49:55 32° WSW 04:51:20 39° WNW 04:55:52 10° N
Cosmos 2237 Rocket 2.1 04:47:37 10° NNW 04:53:18 80° WSW 04:54:21 60° S
Cosmos 2227 Rocket 2.1 04:55:36 60° S 04:56:36 75° ESE 05:02:16 10° NNE
GEOS 3 Rocket 3.6 04:54:36 10° NE 04:59:41 57° ESE 04:59:59 56° SE
Meteor 1-24 Rocket 4.3 04:58:53 38° WSW 05:00:38 50° WNW 05:06:07 10° N
CZ-4C R/B 3.0 04:58:36 24° W 05:00:51 40° NW 05:06:07 10° NNE
Cosmos 2184 Rocket 4.0 05:04:30 51° S 05:06:16 82° E 05:12:40 10° N
Cosmos 1980 3.8 05:00:57 10° NNW 05:06:32 59° WSW 05:07:17 54° SW
Okean 1 Rocket 3.0 05:02:51 10° N 05:07:12 70° E 05:07:20 69° E
PSLV R/B 4.1 05:09:54 10° N 05:13:54 45° WNW 05:14:11 44° W
Cosmos 2297 Rocket 3.1 05:14:19 27° WSW 05:16:45 41° WNW 05:22:06 10° NNE
Aureole 1 Rocket 3.7 05:21:02 38° ENE 05:21:02 38° ENE 05:24:22 10° NNE
Cosmos 2219 3.2 05:19:41 54° SSE 05:20:39 64° ESE 05:26:13 10° NNE
Cosmos 2084 Rocket 4.4 05:19:51 35° W 05:20:49 41° NW 05:24:47 10° NNE
Cosmos 2154 Rocket 3.9 05:21:34 51° S 05:23:20 90° SSE 05:29:39 10° N
Cosmos 1898 Rocket 4.1 05:25:01 39° ESE 05:25:41 41° ESE 05:30:32 10° NE
H-2A R/B 2.4 05:21:57 10° N 05:26:04 52° WNW 05:26:17 51° W
Cosmos 1975 Rocket 3.8 05:28:55 40° ESE 05:29:15 41° E 05:33:22 10° NNE
Cosmos 405 Rocket 4.5 05:26:53 10° NW 05:29:10 22° WNW 05:29:10 22° WNW
NOSS 3-2 (A) 3.0 05:34:24 59° S 05:35:16 72° ESE 05:41:11 10° NE
Cosmos 292 Rocket 3.7 05:35:18 62° SE 05:35:45 66° ESE 05:40:31 10° NNE
Resurs 1-4 Rocket 4.2 05:35:41 10° NE 05:38:48 16° E 05:41:06 12° ESE
NOSS 3-2 (C) 3.9 05:41:30 33° SE 05:42:11 34° ESE 05:47:22 10° NE
Cosmos 1455 Rocket 3.1 05:39:02 10° N 05:43:29 72° E 05:44:01 63° SE
Okean 2 Rocket 4.4 05:43:28 10° NNW 05:47:13 27° W 05:47:13 27° W
Cosmos 2263 Rocket 2.1 05:47:06 53° S 05:48:23 75° ESE 05:53:58 10° NNE
Helios 1A Rocket 3.4 05:48:10 42° E 05:48:39 45° ENE 05:52:18 10° N
Elektron 3 4.3 05:43:21 10° NW 05:48:41 78° NE 05:48:57 72° E
Cosmos 1461 3.2 05:53:11 48° E 05:53:11 48° E 05:56:38 10° NE
Cosmos 1025 Rocket 3.3 05:52:53 50° W 05:53:10 51° W 05:57:24 10° N
Cosmos 1680 Rocket 4.5 05:54:26 10° N 05:59:23 42° ENE 06:02:55 18° SE
Cosmos 1818 4.1 06:00:42 10° NNW 06:06:07 57° NE 06:11:04 12° SE
Cosmos 1844 Rocket 4.4 06:05:47 17° SE 06:08:04 21° E 06:12:11 10° NE
Cosmos 2341 Rocket 3.9 06:11:19 40° S 06:13:44 87° E 06:19:59 10° N
Cosmos 1869 3.4 06:10:26 10° N 06:14:05 58° E 06:14:31 54° ESE
COBE Rocket 4.2 06:12:34 10° NNE 06:17:43 65° E 06:19:27 40° SSE
Cosmos 1437 Rocket 4.4 06:19:56 21° ESE 06:21:03 24° E 06:24:09 10° NE
In-Cosmos 22 Rocket 4.4 06:19:43 41° SW 06:21:41 66° WNW 06:27:31 10° N
IDEFIX/ARIANE 42P 3.0 06:20:39 10° NNE 06:25:48 55° E 06:27:56 33° SSE
SL-16 R/B 2.6 06:25:26 10° NW 06:30:47 43° WSW 06:32:00 38° SW
Cosmos 1900 4.4 06:31:55 44° SSW 06:33:33 75° ESE 06:38:39 10° NE
CZ-2C R/B 4.0 06:30:14 10° NNE 06:35:15 39° E 06:38:01 22° SSE
Cosmos 858 Rocket 4.4 06:34:25 42° SSW 06:36:15 81° WNW 06:41:30 10° NNE
Cosmos 2237 Rocket 4.3 06:35:34 10° W 06:36:08 10° W 06:36:08 10° W
CENTAUR R/B 3.7 06:33:07 15° W 06:37:29 35° NW 06:43:58 10° NNE
Cosmos 2082 4.3 06:36:51 29° WSW 06:39:19 47° WNW 06:44:45 10° NNE
CZ-2C R/B 3.1 06:36:31 18° SSE 06:40:25 60° ENE 06:45:43 10° N
MOZ.5/SAFIR/RUBIN 5/SL-8 3.7 06:39:24 42° S 06:40:53 71° WSW 06:45:31 10° NNW
Cosmos 2227 Rocket 4.2 06:37:23 10° W 06:41:15 19° NW 06:45:18 10° N
MSX 4.0 06:36:26 10° NNE 06:42:10 67° ESE 06:45:07 29° S
CZ-2D R/B 2.5 06:37:42 10° NNE 06:42:56 55° E 06:45:37 27° SSE
Cosmos 1821 Rocket 4.1 06:40:25 27° S 06:43:49 69° E 06:49:56 10° NNE
Cosmos 1943 3.2 06:39:00 10° NNW 06:44:39 78° ENE 06:49:35 14° SSE
USA 238 DEB 3.7 06:45:17 31° S 06:48:13 61° ESE 06:54:44 10° NE
USA 238 3.7 06:45:20 31° S 06:48:16 60° ESE 06:54:47 10° NE
Cosmos 2218 Rocket 4.1 06:45:40 33° SSW 06:48:35 66° W 06:54:44 10° N
Cosmos 1606 2.9 06:45:44 10° NNW 06:49:09 45° W 06:49:14 45° W
Cosmos 1867 3.8 06:49:37 33° S 06:51:58 61° ESE 06:57:22 10° NE
Cosmos 2228 2.9 06:47:41 10° N 06:52:00 78° W 06:53:30 39° S
Iridium 921 4.4 06:53:23 56° WSW 06:53:46 61° W 06:57:11 10° N
Cosmos 2366 rocket 4.2 06:51:04 31° SW 06:54:02 57° W 07:00:12 10° N
Cosmos 1544 Rocket 3.8 06:50:56 10° NNW 06:55:15 52° W 06:56:27 39° SW
H-2A R/B 3.3 06:54:09 10° NNE 06:58:09 82° WNW 06:59:26 42° SSW
Cosmos 923 Rocket 4.5 06:54:38 10° NNW 06:59:34 41° WSW 07:01:11 32° SW
Cosmos 1937 Rocket 4.4 07:00:05 25° WSW 07:02:30 38° WNW 07:07:24 10° N
NPP 3.7 06:57:32 10° N 07:02:55 74° WNW 07:05:42 29° SSW
ADEOS II 2.5 06:57:58 10° NNE 07:03:07 56° E 07:06:30 21° S
ALOS 3.7 07:01:52 10° NNE 07:06:00 32° E 07:09:34 13° SSE
Cosmos 2227 4.4 07:11:34 27° SW 07:14:44 63° WNW 07:20:28 10° NNE
Resurs 1-4 Rocket 2.2 07:13:49 10° N 07:19:04 68° WNW 07:22:10 25° SSW
SL-16 R/B 2.9 07:16:53 10° SSE 07:23:04 69° ENE 07:29:17 10° N
Cosmos 1844 3.8 07:19:48 23° SSW 07:23:29 79° ESE 07:29:19 10° NNE
Cosmos 921 Rocket 2.9 07:22:05 10° NNW 07:26:20 87° ENE 07:30:20 11° SSE
Cosmos 1606 Rocket 3.5 07:26:18 10° N 07:30:46 84° W 07:34:19 15° S
NOSS 3-2 (C) 4.2 07:28:54 16° WSW 07:32:51 39° NW 07:38:41 10° NNE
Cosmos 2263 Rocket 4.1 07:29:02 10° W 07:32:55 19° NW 07:36:49 10° N
USA 267 3.5 07:28:06 10° NE 07:34:32 59° SE 07:39:25 18° SSW
Cosmos 2058 3.8 07:34:18 11° SSE 07:37:59 44° E 07:41:53 10° NNE
Meteor 1-28 Rocket 2.9 07:35:58 15° SSE 07:38:48 86° WSW 07:42:22 10° NNW
BREEZE-M DEB (TANK) 4.0 07:34:40 18° SSW 07:40:23 38° SSE 07:43:39 10° E
Iridium 2 2.4 07:44:41 30° S 07:45:44 88° W 07:48:12 10° N
Cosmos 1726 Rocket 3.5 07:41:23 10° N 07:45:50 78° W 07:50:10 10° S
Cosmos 1727 Rocket 4.5 07:40:30 10° NNW 07:46:26 44° W 07:51:19 15° SSW
Cosmos 1238 Rocket 3.9 07:45:23 10° N 07:48:28 34° ENE 07:51:16 10° SE
Alouette 2 Rocket 3.6 07:44:25 14° S 07:48:30 81° E 07:52:14 10° NNE
Cosmos 1844 Rocket 3.0 07:47:26 18° SW 07:51:29 55° WNW 07:56:58 10° NNE
Cosmos 724 4.4 07:49:23 10° NNW 07:55:14 82° ENE 08:01:06 10° SE
Cosmos 1437 Rocket 4.2 07:54:44 16° WSW 07:56:38 22° WNW 07:59:40 10° NNW
Delta 2 Rocket 4.5 07:57:55 18° SW 07:59:27 22° SSW 08:02:46 10° SE
SEDSat Delta rocket 4.4 07:59:34 15° SSW 08:00:41 17° S 08:03:18 10° SE
SAR-Lupe-1 4.0 07:58:29 10° NNE 08:02:05 90° ESE 08:05:16 13° SSW
IDEFIX/ARIANE 42P 4.2 08:01:04 10° NNW 08:04:54 21° WNW 08:08:40 10° WSW
ASTEX 1 3.9 08:04:21 12° SSW 08:08:31 41° W 08:13:08 10° NNW
USA 234 4.4 08:02:59 10° E 08:09:10 47° NNE 08:15:22 10° NW
CZ-2C R/B 3.2 08:08:55 10° NNE 08:13:18 45° E 08:17:42 10° S
Envisat 3.2 08:09:18 10° NNE 08:14:24 76° ESE 08:19:27 10° S
CZ-2C R/B 4.3 08:10:22 10° N 08:14:51 28° WNW 08:19:01 11° WSW
Timation 2 Rocket 4.1 08:08:33 12° SSW 08:14:52 80° WNW 08:21:17 10° NNE
Cosmos 2278 Rocket 4.4 08:12:33 10° SSE 08:16:41 21° E 08:20:50 10° NE
Cosmos 1048 Rocket 4.4 08:12:12 10° NNW 08:17:07 43° WSW 08:22:04 10° S
Lacrosse 5 4.4 08:16:35 10° SE 08:18:07 11° ESE 08:19:39 10° E
CZ-2C R/B 4.1 08:17:59 11° SW 08:21:05 18° W 08:24:39 10° NW
CZ-2D R/B 3.7 08:18:36 10° NNW 08:22:31 21° WNW 08:26:23 10° WSW
Cosmos 1125 Rocket 3.9 08:21:21 11° SW 08:26:21 51° WNW 08:31:31 10° N
Genesis I 3.9 08:23:04 10° NNW 08:26:38 54° NE 08:30:11 10° SE
Cosmos 2058 Rocket 3.3 08:22:23 10° NNW 08:26:43 53° W 08:30:58 10° S
BREEZE M DEB (TANK) 4.4 08:15:48 10° WNW 08:26:46 61° NNE 08:30:17 10° E
Cosmos 1271 Rocket 4.2 08:23:46 10° SSE 08:27:00 33° E 08:30:16 10° NNE
UNK 4.0 08:22:35 10° S 08:27:01 49° W 08:31:29 10° NNW
Cosmos 1544 2.5 08:24:37 10° SSW 08:27:06 49° W 08:29:40 10° N
Cosmos 1758 Rocket 4.1 08:26:24 10° S 08:30:45 60° E 08:35:06 10° NNE
Cosmos 1607 4.3 08:26:13 10° NW 08:32:14 44° WSW 08:38:05 10° S
NOSS 2-2 (E) 3.3 08:35:08 10° SSW 08:38:31 55° ESE 08:41:34 10° NE
YAOGAN 6 2.4 08:35:30 10° NNE 08:38:42 74° E 08:41:51 10° S
Cosmos 2150 Rocket 4.1 08:36:39 10° SSW 08:41:50 67° WNW 08:47:09 10° NNE
Cosmos 1812 3.9 08:39:04 10° NW 08:41:53 22° W 08:44:41 10° SW
Iridium 4 Rocket 3.8 08:37:50 10° NNW 08:42:04 41° W 08:46:39 10° SSW
ADEOS II 3.7 08:38:31 10° NNW 08:42:19 21° WNW 08:46:06 10° WSW
ALOS 3.5 08:39:12 10° N 08:43:04 27° WNW 08:46:55 10° SW
SWAS 4.4 08:39:54 10° SSW 08:44:03 73° WNW 08:48:16 10° NNE
Cosmos 1605 Rocket 4.2 08:39:37 10° SSW 08:45:39 54° WNW 08:51:40 10° N
PAYLOAD A 4.2 08:41:11 10° NNE 08:46:26 85° ESE 08:51:49 10° SSW
